Location: Unspecified
(40.7945°N, 0.0000°E)
Time: 09:42:42
(UTC+00:00)

deb Explorer IX - Visible Passes

Search period start: 18 June 2021 00:00
Search period end: 28 June 2021 00:00
Orbit: 542 x 1096 km, 38.8° (Epoch: 17 June)

Date Brightness Start Highest point End Pass type
(mag) Time Alt. Az. Time Alt. Az. Time Alt. Az.
24 Jun ? 03:43:41 10° SSW 03:47:26 24° SSE 03:50:54 10° E visible
25 Jun ? 03:20:25 13° SSW 03:23:35 25° SSE 03:27:10 10° E visible
26 Jun ? 02:57:32 19° SSW 02:59:44 26° SSE 03:03:26 10° E visible
27 Jun ? 02:34:35 24° S 02:35:52 27° SSE 02:39:43 10° E visible
